This is the latest recevied weather packets stored in our database for station/object KC1DMA. If no packets are shown the sender has not sent any weather packets the latest 10 day(s).
| Time | Temp. | Humidity | Pressure | Rain* | Wind** | Luminosity | Snow |
|---|---|---|---|---|---|---|---|
| 1777625095 | 3.33° C | 90% | 1012 hPa | - | - | 0 W/m² | - |
| 1777624791 | 3.89° C | 89% | 1012.1 hPa | - | - | 0 W/m² | - |
| 1777624486 | 3.89° C | 88% | 1012.1 hPa | - | - | 0 W/m² | - |
| 1777624184 | 4.44° C | 87% | 1012.2 hPa | - | - | 0 W/m² | - |
| 1777623880 | 4.44° C | 87% | 1012.1 hPa | - | - | 0 W/m² | - |
| 1777623576 | 4.44° C | 87% | 1012 hPa | - | - | 0 W/m² | - |
| 1777623275 | 5° C | 86% | 1012 hPa | - | - | 0 W/m² | - |
| 1777622971 | 5° C | 86% | 1011.9 hPa | - | - | 0 W/m² | - |
| 1777622668 | 5° C | 85% | 1011.9 hPa | - | - | 0 W/m² | - |
| 1777622365 | 5° C | 83% | 1011.9 hPa | - | - | 0 W/m² | - |
| 1777622061 | 5° C | 82% | 1011.6 hPa | - | - | 0 W/m² | - |
| 1777621762 | 5.56° C | 82% | 1011.7 hPa | - | - | 0 W/m² | - |
| 1777621459 | 5.56° C | 83% | 1011.6 hPa | - | - | 0 W/m² | - |
| 1777621154 | 5.56° C | 82% | 1011.5 hPa | - | - | 0 W/m² | - |
| 1777620851 | 5° C | 86% | 1011.6 hPa | - | - | 0 W/m² | - |
| 1777620547 | 5° C | 86% | 1011.6 hPa | - | - | 0 W/m² | - |
| 1777620244 | 5.56° C | 86% | 1011.5 hPa | - | - | 0 W/m² | - |
| 1777619941 | 5.56° C | 84% | 1011.7 hPa | - | - | 0 W/m² | - |
| 1777619636 | 5.56° C | 82% | 1011.7 hPa | - | - | 0 W/m² | - |
| 1777619331 | 5.56° C | 81% | 1011.6 hPa | - | - | 0 W/m² | - |
| 1777619026 | 6.11° C | 80% | 1011.5 hPa | - | - | 0 W/m² | - |
| 1777618721 | 6.11° C | 79% | 1011.7 hPa | - | - | 0 W/m² | - |
| 1777618416 | 6.11° C | 79% | 1011.5 hPa | - | - | 0 W/m² | - |
| 1777618113 | 6.11° C | 78% | 1011.5 hPa | - | - | 0 W/m² | - |
| 1777617811 | 6.11° C | 79% | 1011.5 hPa | - | - | 0 W/m² | - |
* Rain since midnight (hover to see other rain measurements)
** Current wind speed in m/s (hover to see current wind gust speed)